sat.trackr.live / text

‹ back to catalog

STARLINK-11190 [DTC]

NORAD 60911 · 2024-154J

PAYLOAD ACTIVE UNKNOWN

§ Identity

Operator
Country
US
Launch date
2024-08-31
Launch site
AFETR
Launch vehicle
Mass (kg)
RCS (m²)

Purposes: comms

External: N2YO · Heavens-Above · Gunter

§ Orbital elements

Epoch: 2026-05-25T03:41:50.280288Z

Period
91.74 min
Inclination
53.1585°
Eccentricity
0.0000899
Mean motion
15.69706950 rev/d
Perigee alt
359.1 km
Apogee alt
360.3 km
Semi-major
6,737.9 km
B*
7.6243e-6
RAAN
114.3462°
Arg perigee
97.1216°
Mean anomaly
262.9904°
Rev number
10,051

§ Raw data

STARLINK-11190 [DTC]1 60911U 24154J   26145.15405417  .00000335  00000+0  76243-5 0  99952 60911  53.1585 114.3462 0000899  97.1216 262.9904 15.69706950100516

JSON: /api/v1/satellites/60911 · /tle

For live sub-satellite position, see the globe view (requires WebGL).

§ Visibility from observer

Set your observer location to see the next 7 days of passes ≥ 10°. The values pass through the URL so the page stays shareable.

No JS? Fill the form by hand. The geolocation button needs JavaScript.